Find Starlink 5311

NORAD ID: 55288 Int'l Des: 2023-010 Owner: SPXS Country: US Constellation: starlink operational
LEOCIRCULAR

現在のビュー

3D地球を読み込み中...

About Starlink 5311

Starlink 5311 (NORAD 55288) is a starlink constellation satellite (v1.5) launched Jan 19, 2023 by SPXS of US. It operates in LEO, CIRCULAR orbit with a mass of 305.00 kg.

次回通過

Passes for default location (London). Set your location on the main map for personalized predictions.

高度履歴

Loading altitude history...

軌道要素

1 55288U 23010V 26237.61997277 -.00001313 00000-0 -10227-3 0 9997
2 55288 70.0011 318.5074 0003390 266.7474 93.3298 14.98333665198570
Epoch: Aug 25, 2026 • Age: 17 hours

現在のステータス

高度 574.0 km
遠地点 / 近地点 N/A
速度 7.57 km/s
衛星直下点 7.03°N, 44.58°E
打ち上げ日 Jan 19, 2023
運用期間 3.5 years
タイプ internet

技術仕様

分類 Payload
質量 305.00 kg
乾燥質量 290.00 kg
総質量 305.00 kg
長さ 0.20 m
直径 2.80 m
スパン 9.00 m
形状 Box + pan
製造者 SPXS
バスタイプ Starlink
フェーズステータス In Orbit
所有者/国 SPXS/US

Most Searched